Date,Installs,Update checks
2022-02-16,8,2
2022-02-17,93,25
2022-02-18,96,48
2022-02-19,72,51
2022-02-20,44,67
2022-02-21,48,88
2022-02-22,57,103
2022-02-23,80,111
2022-02-24,84,140
2022-02-25,78,147
2022-02-26,108,160
2022-02-27,113,169
2022-02-28,101,233
2022-03-01,107,245
2022-03-02,96,268
2022-03-03,94,292
2022-03-04,117,325
2022-03-05,104,327
2022-03-06,83,364
2022-03-07,75,379
2022-03-08,76,418
2022-03-09,98,390
2022-03-10,80,401
2022-03-11,92,461
2022-03-12,95,447
2022-03-13,82,466
2022-03-14,72,526
2022-03-15,80,521
2022-03-16,78,554
2022-03-17,79,549
2022-03-18,88,571
2022-03-19,112,604
2022-03-20,93,585
2022-03-21,112,638
2022-03-22,121,663
2022-03-23,107,735
2022-03-24,108,706
2022-03-25,93,722
2022-03-26,74,710
2022-03-27,101,705
2022-03-28,76,725
2022-03-29,72,757
2022-03-30,68,766
2022-03-31,78,777
2022-04-01,60,769
2022-04-02,65,781
2022-04-03,106,754
2022-04-04,108,764
2022-04-05,124,781
2022-04-06,105,860
2022-04-07,102,908
2022-04-08,103,886
2022-04-09,147,897
2022-04-10,109,851
2022-04-11,86,924
2022-04-12,100,982
2022-04-13,95,973
2022-04-14,72,986
2022-04-15,77,967
2022-04-16,87,968
2022-04-17,81,953
2022-04-18,74,990
2022-04-19,69,1033
2022-04-20,72,1067
2022-04-21,84,1043
2022-04-22,79,1039
2022-04-23,67,996
2022-04-24,58,1065
2022-04-25,79,1034
2022-04-26,51,1077
2022-04-27,58,1065
2022-04-28,60,1036
2022-04-29,49,1045
2022-04-30,96,1008
2022-05-01,73,944
2022-05-02,53,993
2022-05-03,26,999
2022-05-04,33,1019
2022-05-05,27,1019
2022-05-06,47,1103
2022-05-07,49,1049
2022-05-08,47,1005
2022-05-09,51,1054
2022-05-10,53,1089
2022-05-11,47,1115
2022-05-12,21,1116
2022-05-13,21,1077
2022-05-14,23,1052
2022-05-15,30,982
2022-05-16,22,1032
2022-05-17,24,1073
2022-05-18,25,1043
2022-05-19,23,1074
2022-05-20,35,1045
2022-05-21,44,1071
2022-05-22,30,1024
2022-05-23,24,1091
2022-05-24,32,1073
2022-05-25,24,1042
2022-05-26,22,1075
2022-05-27,19,1080
2022-05-28,33,1000
2022-05-29,44,978
2022-05-30,43,1114
2022-05-31,30,1074
2022-06-01,20,1010
2022-06-02,18,1052
2022-06-03,37,919
2022-06-04,45,960
2022-06-05,55,970
2022-06-06,40,1037
2022-06-07,32,1032
2022-06-08,27,1062
2022-06-09,36,1050
2022-06-10,33,1044
2022-06-11,27,1032
2022-06-12,24,1000
2022-06-13,25,1107
2022-06-14,37,1059
2022-06-15,39,1049
2022-06-16,18,1088
2022-06-17,29,1091
2022-06-18,32,985
2022-06-19,42,1005
2022-06-20,36,1038
2022-06-21,31,1057
2022-06-22,54,1104
2022-06-23,46,1021
2022-06-24,58,1031
2022-06-25,76,990
2022-06-26,48,1055
2022-06-27,35,1114
2022-06-28,31,1119
2022-06-29,21,1111
2022-06-30,27,1082
2022-07-01,28,1050
2022-07-02,44,1030
2022-07-03,47,997
2022-07-04,31,1083
2022-07-05,26,1078
2022-07-06,53,1078
2022-07-07,42,1084
2022-07-08,43,1069
2022-07-09,60,999
2022-07-10,50,1042
2022-07-11,36,1099
2022-07-12,48,1057
2022-07-13,48,1109
2022-07-14,38,1042
2022-07-15,42,1134
2022-07-16,28,1077
2022-07-17,24,1010
2022-07-18,29,1130
2022-07-19,37,1104
2022-07-20,52,1125
2022-07-21,38,1108
2022-07-22,46,1105
2022-07-23,41,1088
2022-07-24,29,728
2022-07-25,34,1147
2022-07-26,41,1064
2022-07-27,31,1124
2022-07-28,26,1068
2022-07-29,30,1069
2022-07-30,34,973
2022-07-31,34,1065
2022-08-01,29,1125
2022-08-02,34,1162
2022-08-03,59,1114
2022-08-04,83,1109
2022-08-05,68,1143
2022-08-06,74,1113
2022-08-07,61,1098
2022-08-08,65,1169
2022-08-09,58,1183
2022-08-10,34,1214
2022-08-11,45,1175
2022-08-12,67,1205
2022-08-13,52,1138
2022-08-14,60,1152
2022-08-15,36,1202
2022-08-16,49,1201
2022-08-17,81,1187
2022-08-18,57,1194
2022-08-19,54,1220
2022-08-20,51,1152
2022-08-21,62,1111
2022-08-22,64,1256
2022-08-23,72,1250
2022-08-24,76,1249
2022-08-25,51,1241
2022-08-26,43,1238
2022-08-27,58,1165
2022-08-28,69,1241
2022-08-29,57,1267
2022-08-30,89,1319
2022-08-31,115,1287
2022-09-01,113,1301
2022-09-02,116,1293
2022-09-03,145,1325
2022-09-04,122,1251
2022-09-05,88,1350
2022-09-06,102,1363
2022-09-07,110,1349
2022-09-08,102,1332
2022-09-09,84,1335
2022-09-10,85,1209
2022-09-11,129,1296
2022-09-12,111,1372
2022-09-13,110,1403
2022-09-14,131,1470
2022-09-15,110,1452
2022-09-16,101,1502
2022-09-17,111,1446
2022-09-18,91,1428
2022-09-19,97,1552
2022-09-20,149,1523
2022-09-21,169,1522
2022-09-22,84,1605
2022-09-23,92,1537
2022-09-24,89,1490
2022-09-25,108,1437
2022-09-26,108,1590
2022-09-27,117,1555
2022-09-28,79,1540
2022-09-29,73,1567
2022-09-30,80,1516
2022-10-01,68,1395
2022-10-02,74,1362
2022-10-03,63,1389
2022-10-04,74,1378
2022-10-05,76,1442
2022-10-06,97,1463
2022-10-07,84,1512
2022-10-08,78,1595
2022-10-09,107,1582
2022-10-10,68,1589
2022-10-11,69,1608
2022-10-12,62,1611
2022-10-13,71,1644
2022-10-14,83,1614
2022-10-15,97,1574
2022-10-16,70,1530
2022-10-17,45,1640
2022-10-18,80,1605
2022-10-19,102,1637
2022-10-20,138,1644
2022-10-21,126,1644
2022-10-22,128,1637
2022-10-23,95,1523
2022-10-24,92,1734
2022-10-25,92,1671
2022-10-26,92,1654
2022-10-27,99,1718
2022-10-28,97,1686
2022-10-29,79,1591
2022-10-30,96,1634
2022-10-31,55,1725
2022-11-01,69,1753
2022-11-02,83,1682
2022-11-03,76,1763
2022-11-04,74,1698
2022-11-05,74,1582
2022-11-06,75,1642
2022-11-07,73,1708
2022-11-08,82,1726
2022-11-09,64,1743
2022-11-10,85,1740
2022-11-11,128,1723
2022-11-12,111,1682
2022-11-13,110,1712
2022-11-14,125,1742
2022-11-15,154,1809
2022-11-16,125,1854
2022-11-17,133,1716
2022-11-18,232,1773
2022-11-19,154,1654
2022-11-20,157,1768
2022-11-21,186,1897
2022-11-22,146,1980
2022-11-23,127,1974
2022-11-24,120,2039
2022-11-25,131,1957
2022-11-26,148,1842
2022-11-27,131,1872
2022-11-28,162,2030
2022-11-29,147,2064
2022-11-30,185,1950
2022-12-01,226,1965
2022-12-02,212,2054
2022-12-03,302,1892
2022-12-04,285,1963
2022-12-05,253,2053
2022-12-06,253,2198
2022-12-07,224,2223
2022-12-08,316,2263
2022-12-09,349,2222
2022-12-10,308,2125
2022-12-11,304,2075
2022-12-12,245,2261
2022-12-13,270,2204
2022-12-14,283,2120
2022-12-15,298,2474
2022-12-16,254,2178
2022-12-17,390,2099
2022-12-18,319,2172
2022-12-19,281,2431
2022-12-20,205,2346
2022-12-21,188,2183
2022-12-22,214,2375
2022-12-23,183,2409
2022-12-24,138,2184
2022-12-25,137,2458
2022-12-26,112,2480
2022-12-27,104,2605
2022-12-28,114,2528
2022-12-29,158,2516
2022-12-30,135,2657
2022-12-31,153,2191
2023-01-01,207,2333
2023-01-02,247,2652
2023-01-03,226,2849
2023-01-04,227,2926
2023-01-05,194,2911
2023-01-06,178,2870
2023-01-07,171,2758
2023-01-08,187,2730
2023-01-09,143,2901
2023-01-10,147,2857
2023-01-11,132,2809
2023-01-12,132,2776
2023-01-13,149,2860
2023-01-14,189,2713
2023-01-15,174,2633
2023-01-16,136,2718
2023-01-17,121,2631
2023-01-18,155,2562
2023-01-19,165,2495
2023-01-20,139,2300
2023-01-21,90,2004
2023-01-22,65,2008
2023-01-23,78,2000
2023-01-24,85,2119
2023-01-25,67,2147
2023-01-26,88,2247
2023-01-27,91,2449
2023-01-28,82,2624
2023-01-29,92,2721
2023-01-30,80,2885
2023-01-31,81,2853
2023-02-01,69,2932
2023-02-02,62,2845
2023-02-03,81,2916
2023-02-04,97,2798
2023-02-05,96,2690
2023-02-06,67,2982
2023-02-07,57,2945
2023-02-08,72,2972
2023-02-09,83,3021
2023-02-10,68,2942
2023-02-11,63,2770
2023-02-12,81,2738
2023-02-13,67,3013
2023-02-14,89,2902
2023-02-15,75,2932
2023-02-16,70,2840
2023-02-17,75,2890
2023-02-18,80,2741
2023-02-19,61,2668
2023-02-20,53,2979
2023-02-21,40,2863
2023-02-22,41,2944
2023-02-23,41,2911
2023-02-24,55,2851
2023-02-25,59,2620
2023-02-26,47,2572
2023-02-27,36,2818
2023-02-28,55,2896
2023-03-01,76,2798
2023-03-02,71,2800
2023-03-03,79,2761
2023-03-04,81,2485
2023-03-05,71,2506
2023-03-06,79,2687
2023-03-07,103,2737
2023-03-08,123,2639
2023-03-09,120,2613
2023-03-10,121,2623
2023-03-11,133,2428
2023-03-12,113,2467
2023-03-13,74,2669
2023-03-14,72,2605
2023-03-15,87,2575
2023-03-16,85,2537
2023-03-17,86,2573
2023-03-18,82,2228
2023-03-19,74,2311
2023-03-20,108,2605
2023-03-21,85,2583
2023-03-22,78,2549
2023-03-23,60,2577
2023-03-24,77,2468
2023-03-25,84,2344
2023-03-26,65,2305
2023-03-27,91,2527
2023-03-28,89,2478
2023-03-29,63,2369
2023-03-30,59,2481
2023-03-31,107,2428
2023-04-01,80,2270
2023-04-02,77,2243
2023-04-03,61,2432
2023-04-04,70,2406
2023-04-05,61,2221
2023-04-06,40,2470
2023-04-07,35,2369
2023-04-08,55,2203
2023-04-09,37,2260
2023-04-10,43,2392
2023-04-11,61,2372
2023-04-12,52,2368
2023-04-13,44,2374
2023-04-14,47,2279
2023-04-15,68,2133
2023-04-16,62,2200
2023-04-17,40,2348
2023-04-18,65,2317
2023-04-19,61,2338
2023-04-20,66,2320
2023-04-21,74,2318
2023-04-22,62,2165
2023-04-23,49,2294
2023-04-24,53,2294
2023-04-25,41,2241
2023-04-26,34,2255
2023-04-27,50,2212
2023-04-28,53,2164
2023-04-29,66,1896
2023-04-30,56,1917
2023-05-01,55,1853
2023-05-02,64,1963
2023-05-03,51,2106
2023-05-04,47,2259
2023-05-05,49,2286
2023-05-06,56,2248
2023-05-07,59,2115
2023-05-08,39,2277
2023-05-09,53,2244
2023-05-10,51,2230
2023-05-11,37,2182
2023-05-12,34,2202
2023-05-13,53,2090
2023-05-14,34,2027
2023-05-15,41,2202
2023-05-16,40,2113
2023-05-17,37,2195
2023-05-18,46,2133
2023-05-19,40,2128
2023-05-20,47,2015
2023-05-21,37,1992
2023-05-22,61,2184
2023-05-23,46,2197
2023-05-24,49,2167
2023-05-25,41,2094
2023-05-26,74,2178
2023-05-27,70,2030
2023-05-28,52,1995
2023-05-29,48,2136
2023-05-30,40,2055
2023-05-31,44,2121
2023-06-01,56,2137
2023-06-02,68,2091
2023-06-03,62,1957
2023-06-04,44,2001
2023-06-05,46,2146
2023-06-06,60,2095
2023-06-07,27,2091
2023-06-08,34,2089
2023-06-09,38,2047
2023-06-10,46,1928
2023-06-11,39,1964
2023-06-12,30,2087
2023-06-13,42,2046
2023-06-14,38,2072
2023-06-15,45,2021
2023-06-16,48,2028
2023-06-17,45,1912
2023-06-18,48,1896
2023-06-19,45,2016
2023-06-20,28,2020
2023-06-21,42,1940
2023-06-22,31,1695
2023-06-23,52,1786
2023-06-24,53,1899
2023-06-25,28,2043
2023-06-26,36,2009
2023-06-27,31,1940
2023-06-28,49,2033
2023-06-29,41,1952
2023-06-30,56,1973
2023-07-01,63,1828
2023-07-02,65,1848
2023-07-03,42,2015
2023-07-04,38,1935
2023-07-05,43,1994
2023-07-06,33,1931
2023-07-07,31,1881
2023-07-08,50,1798
2023-07-09,36,1801
2023-07-10,43,1925
2023-07-11,53,1918
2023-07-12,38,1874
2023-07-13,40,1912
2023-07-14,36,1885
2023-07-15,46,1731
2023-07-16,41,1716
2023-07-17,29,1959
2023-07-18,34,1908
2023-07-19,26,1830
2023-07-20,39,1839
2023-07-21,57,1867
2023-07-22,47,1686
2023-07-23,40,1753
2023-07-24,28,1907
2023-07-25,40,1850
2023-07-26,41,1878
2023-07-27,33,1866
2023-07-28,41,1848
2023-07-29,31,1813
2023-07-30,26,1690
2023-07-31,40,1875
2023-08-01,28,1855
2023-08-02,41,1790
2023-08-03,35,1767
2023-08-04,28,1840
2023-08-05,43,1691
2023-08-06,36,1662
2023-08-07,33,1792
2023-08-08,33,1763
2023-08-09,30,1812
2023-08-10,35,1773
2023-08-11,21,1696
2023-08-12,25,1664
2023-08-13,35,1693
2023-08-14,42,1812
2023-08-15,46,1764
2023-08-16,32,1771
2023-08-17,33,1779
2023-08-18,28,1694
2023-08-19,33,1682
2023-08-20,45,1623
2023-08-21,21,1750
2023-08-22,30,1739
2023-08-23,37,1732
2023-08-24,27,1778
2023-08-25,38,1691
2023-08-26,50,1619
2023-08-27,53,1642
2023-08-28,52,1807
2023-08-29,50,1794
2023-08-30,43,1737
2023-08-31,39,1771
2023-09-01,48,1773
2023-09-02,61,1692
2023-09-03,71,1570
2023-09-04,61,1673
2023-09-05,73,1715
2023-09-06,43,1689
2023-09-07,51,1681
2023-09-08,56,1725
2023-09-09,57,1567
2023-09-10,52,1613
2023-09-11,48,1772
2023-09-12,45,1781
2023-09-13,38,1763
2023-09-14,48,1740
2023-09-15,44,1742
2023-09-16,40,1589
2023-09-17,33,1607
2023-09-18,39,1739
2023-09-19,43,1737
2023-09-20,41,1718
2023-09-21,28,1724
2023-09-22,27,1711
2023-09-23,30,1636
2023-09-24,24,1625
2023-09-25,25,1678
2023-09-26,29,1720
2023-09-27,24,1627
2023-09-28,63,1613
2023-09-29,42,1363
2023-09-30,52,1356
2023-10-01,212,1368
2023-10-02,258,1413
2023-10-03,404,1450
2023-10-04,314,1457
2023-10-05,291,1549
2023-10-06,273,1663
2023-10-07,303,1722
2023-10-08,244,1721
2023-10-09,440,1675
2023-10-10,233,1731
2023-10-11,244,1725
2023-10-12,233,1769
2023-10-13,312,1708
2023-10-14,222,1584
2023-10-15,280,1545
2023-10-16,209,1730
2023-10-17,187,1715
2023-10-18,340,1715
2023-10-19,260,1701
2023-10-20,265,1705
2023-10-21,275,1622
2023-10-22,230,1605
2023-10-23,275,1738
2023-10-24,164,1723
2023-10-25,242,1668
2023-10-26,215,1722
2023-10-27,533,1731
2023-10-28,72,1614
2023-10-29,169,1585
2023-10-30,299,1676
2023-10-31,275,1707
2023-11-01,181,1741
2023-11-02,215,1722
2023-11-03,188,1686
2023-11-04,449,1546
2023-11-05,233,1548
2023-11-06,330,1708
2023-11-07,575,1686
2023-11-08,230,1719
2023-11-09,424,1652
2023-11-10,363,1646
2023-11-11,320,1558
2023-11-12,29,1599
2023-11-13,9,1690
2023-11-14,18,1629
2023-11-15,10,1589
2023-11-16,15,1675
2023-11-17,20,1527
2023-11-18,237,1566
2023-11-19,532,1567
2023-11-20,268,1747
2023-11-21,213,1674
2023-11-22,279,1690
2023-11-23,414,1670
2023-11-24,465,1622
2023-11-25,431,1545
2023-11-26,353,1559
2023-11-27,272,1745
2023-11-28,225,1699
2023-11-29,247,1693
2023-11-30,57,1699
2023-12-01,291,1672
2023-12-02,646,1612
2023-12-03,284,1548
2023-12-04,457,1744
2023-12-05,285,1078
2023-12-06,487,989
2023-12-07,279,991
2023-12-08,462,1056
2023-12-09,304,951
2023-12-10,371,973
2023-12-11,261,1043
2023-12-12,272,1062
2023-12-13,411,982
2023-12-14,359,1005
2023-12-15,596,1043
2023-12-16,363,942
2023-12-17,260,926
2023-12-18,442,1009
2023-12-19,76,981
2023-12-20,32,945
2023-12-21,17,946
2023-12-22,362,944
2023-12-23,375,901
2023-12-24,435,910
2023-12-25,189,988
2023-12-26,263,1026
2023-12-27,691,993
2023-12-28,608,956
2023-12-29,536,985
2023-12-30,283,944
2023-12-31,519,895
2024-01-01,556,968
2024-01-02,572,1068
2024-01-03,281,1040
2024-01-04,578,1066
2024-01-05,468,1050
2024-01-06,516,1031
2024-01-07,575,1017
2024-01-08,535,1113
2024-01-09,456,1096
2024-01-10,566,1090
2024-01-11,712,1104
2024-01-12,527,1071
2024-01-13,379,1090
2024-01-14,561,1037
2024-01-15,499,1149
2024-01-16,671,1088
2024-01-17,447,1149
2024-01-18,635,1125
2024-01-19,415,1149
2024-01-20,703,1062
2024-01-21,501,1027
2024-01-22,496,1138
2024-01-23,471,1505
2024-01-24,512,1401
2024-01-25,738,1390
2024-01-26,445,1426
2024-01-27,729,1345
2024-01-28,443,1338
2024-01-29,250,1505
2024-01-30,554,1439
2024-01-31,600,1460
2024-02-01,475,1441
2024-02-02,569,1457
2024-02-03,435,1353
2024-02-04,455,1343
2024-02-05,764,1410
2024-02-06,101,1334
2024-02-07,594,1287
2024-02-08,466,1163
2024-02-09,267,1016
2024-02-10,420,986
2024-02-11,207,1001
2024-02-12,367,998
2024-02-13,452,1040
2024-02-14,534,1126
2024-02-15,545,1149
2024-02-16,366,1315
2024-02-17,564,1327
2024-02-18,336,1562
2024-02-19,611,1659
2024-02-20,442,1662
2024-02-21,345,1640
2024-02-22,579,1655
2024-02-23,468,1651
2024-02-24,579,1509
2024-02-25,378,1538
2024-02-26,337,1656
2024-02-27,320,1700
2024-02-28,355,1621
2024-02-29,261,1639
2024-03-01,324,1647
2024-03-02,431,1576
2024-03-03,557,1531
2024-03-04,478,1714
2024-03-05,329,1676
2024-03-06,606,1676
2024-03-07,304,1685
2024-03-08,334,1647
2024-03-09,818,1550
2024-03-10,701,1562
2024-03-11,635,1748
2024-03-12,592,1711
2024-03-13,341,1665
2024-03-14,642,1673
2024-03-15,637,1629
2024-03-16,678,1548
2024-03-17,476,1608
2024-03-18,618,1707
2024-03-19,496,1622
2024-03-20,856,1622
2024-03-21,455,1689
2024-03-22,821,1672
2024-03-23,699,1607
2024-03-24,584,1617
2024-03-25,642,1657
2024-03-26,625,1667
2024-03-27,661,1672
2024-03-28,649,1593
2024-03-29,634,1588
2024-03-30,640,1527
2024-03-31,659,1517
2024-04-01,459,1628
2024-04-02,709,1639
2024-04-03,687,1685
2024-04-04,704,1549
2024-04-05,642,1524
2024-04-06,636,1535
2024-04-07,577,1726
2024-04-08,191,1707
2024-04-09,623,1785
2024-04-10,649,1694
2024-04-11,641,1763
2024-04-12,646,1728
2024-04-13,667,1576
2024-04-14,658,1575
2024-04-15,669,1678
2024-04-16,690,1678
2024-04-17,579,1621
2024-04-18,517,1653
2024-04-19,418,1697
2024-04-20,437,1554
2024-04-21,430,1533
2024-04-22,418,1654
2024-04-23,446,1689
2024-04-24,427,1675
2024-04-25,263,1426
2024-04-26,61,1209
2024-04-27,725,1239
2024-04-28,253,1222
2024-04-29,233,1267
2024-04-30,402,1203
2024-05-01,80,1011
2024-05-02,37,1015
2024-05-03,414,1078
2024-05-04,336,1115
2024-05-05,395,1128
2024-05-06,281,1282
2024-05-07,331,1218
2024-05-08,453,1204
2024-05-09,556,1280
2024-05-10,465,1162
2024-05-11,445,1200
2024-05-12,527,1067
2024-05-13,539,1219
2024-05-14,563,1176
2024-05-15,66,1237
2024-05-16,651,1157
2024-05-17,676,1207
2024-05-18,590,1130
2024-05-19,656,1083
2024-05-20,700,1196
2024-05-21,171,1192
2024-05-22,681,1159
2024-05-23,660,1130
2024-05-24,678,1122
2024-05-25,674,1104
2024-05-26,700,1119
2024-05-27,158,352
